Location: 相模原市立博物館
(35.5593°N, 139.3931°E)
Time: 05:14:57
(UTC+09:00)

DELFI C3 - Visible Passes

Search period start: 20 January 2022 00:00
Search period end: 30 January 2022 00:00
Orbit: 526 x 543 km, 97.4° (Epoch: 19 January)

Date Brightness Start Highest point End Pass type
(mag) Time Alt. Az. Time Alt. Az. Time Alt. Az.
20 Jan ? 17:59:16 12° NNE 17:59:16 12° NNE 17:59:39 10° NNE visible
20 Jan ? 19:28:01 10° SSW 19:34:37 10° NW 19:28:57 15° SW visible
21 Jan ? 17:49:25 12° NE 17:49:25 12° NE 17:50:09 10° NE visible
21 Jan ? 19:18:44 10° SSW 19:24:46 16° NW 19:25:47 10° NNW visible
22 Jan ? 17:39:14 11° ENE 17:39:14 11° ENE 17:40:12 10° NE visible
22 Jan ? 19:09:32 10° S 19:14:31 32° NW 19:16:56 10° NNW visible
23 Jan ? 19:00:24 10° S 19:04:12 59° W 19:08:00 10° NNW visible
24 Jan ? 18:51:18 10° S 18:55:09 80° WSW 18:59:00 10° NNW visible
25 Jan ? 18:42:17 10° SSE 18:46:06 77° ENE 18:49:57 10° N visible
26 Jan ? 18:33:17 10° SSE 18:37:03 57° ENE 18:40:49 10° N visible
27 Jan ? 18:24:21 10° SE 18:27:59 43° ENE 18:31:38 10° N visible
27 Jan ? 20:02:08 10° W 20:02:37 10° W 20:03:05 10° W visible
28 Jan ? 18:15:28 10° SE 18:18:55 33° ENE 18:22:22 10° N visible
28 Jan ? 19:51:28 10° SW 19:53:26 13° W 19:55:22 10° WNW visible
29 Jan ? 18:06:40 10° SE 18:09:50 25° ENE 18:13:02 10° NNE visible
29 Jan ? 19:41:37 10° SW 19:44:14 17° W 19:46:51 10° NW visible
